Time,TemperatureF,DewpointF,PressureIn,WindDirection,WindDirectionDegrees,WindSpeedMPH,WindSpeedGustMPH,Humidity,HourlyPrecipIn,Conditions,Clouds,dailyrainin,SolarRadiationWatts/m^2,SoftwareType,DateUTC
2013-06-22 00:01:00,65.2,54.0,30.15,SSE,163,0.0,0.0,67,0.00,,,0.00,0,Wunderground v.1.15,2013-06-22 04:01:00,
2013-06-22 00:03:00,65.2,54.4,30.15,SSE,163,0.0,0.0,68,0.00,,,0.00,0,Wunderground v.1.15,2013-06-22 04:03:00,
2013-06-22 00:09:00,65.0,54.6,30.15,SSE,163,0.0,0.0,69,0.00,,,0.00,0,Wunderground v.1.15,2013-06-22 04:09:00,
2013-06-22 00:12:00,64.8,54.0,30.15,SSE,163,0.0,0.0,68,0.00,,,0.00,0,Wunderground v.1.15,2013-06-22 04:12:00,
2013-06-22 00:16:00,64.7,54.3,30.15,SSE,163,0.0,0.0,69,0.00,,,0.00,0,Wunderground v.1.15,2013-06-22 04:16:00,
2013-06-22 00:21:00,64.5,54.5,30.15,SSE,163,0.0,0.0,70,0.00,,,0.00,0,Wunderground v.1.15,2013-06-22 04:21:00,
2013-06-22 00:26:00,64.3,53.9,30.15,SSE,162,0.0,0.0,69,0.00,,,0.00,0,Wunderground v.1.15,2013-06-22 04:26:00,
2013-06-22 00:32:00,64.2,54.2,30.15,SSE,162,0.0,0.0,70,0.00,,,0.00,0,Wunderground v.1.15,2013-06-22 04:32:00,
2013-06-22 00:37:00,64.0,54.0,30.15,SSE,162,0.0,0.0,70,0.00,,,0.00,0,Wunderground v.1.15,2013-06-22 04:37:00,
2013-06-22 00:43:00,64.0,54.0,30.15,SSE,162,0.0,0.0,70,0.00,,,0.00,0,Wunderground v.1.15,2013-06-22 04:43:00,
2013-06-22 00:49:00,63.9,53.9,30.15,SSE,162,0.0,0.0,70,0.00,,,0.00,0,Wunderground v.1.15,2013-06-22 04:49:00,
2013-06-22 00:54:00,63.9,53.9,30.15,SSE,162,0.0,0.0,70,0.00,,,0.00,0,Wunderground v.1.15,2013-06-22 04:54:00,
2013-06-22 01:01:00,63.7,53.3,30.15,SSE,162,0.0,0.0,69,0.00,,,0.00,0,Wunderground v.1.15,2013-06-22 05:01:00,
2013-06-22 01:06:00,63.7,53.3,30.15,SSE,162,0.0,0.0,69,0.00,,,0.00,0,Wunderground v.1.15,2013-06-22 05:06:00,
2013-06-22 01:11:00,63.7,53.7,30.15,SSE,162,0.0,0.0,70,0.00,,,0.00,0,Wunderground v.1.15,2013-06-22 05:11:00,
2013-06-22 01:16:00,63.5,53.9,30.15,SSE,162,0.0,0.0,71,0.00,,,0.00,0,Wunderground v.1.15,2013-06-22 05:16:00,
2013-06-22 01:22:00,63.2,54.0,30.15,SSE,162,0.0,0.0,72,0.00,,,0.00,0,Wunderground v.1.15,2013-06-22 05:22:00,
2013-06-22 01:28:00,63.1,53.5,30.15,SSE,162,0.0,0.0,71,0.00,,,0.00,0,Wunderground v.1.15,2013-06-22 05:28:00,
2013-06-22 01:34:00,62.9,53.4,30.15,SSE,162,0.0,0.0,71,0.00,,,0.00,0,Wunderground v.1.15,2013-06-22 05:34:00,
2013-06-22 01:41:00,62.9,53.0,30.15,SSE,162,0.0,0.0,70,0.00,,,0.00,0,Wunderground v.1.15,2013-06-22 05:41:00,
2013-06-22 01:46:00,63.1,53.2,30.14,SSE,162,0.0,0.0,70,0.00,,,0.00,0,Wunderground v.1.15,2013-06-22 05:46:00,
2013-06-22 01:51:00,63.1,52.8,30.14,SSE,162,0.0,0.0,69,0.00,,,0.00,0,Wunderground v.1.15,2013-06-22 05:51:00,
2013-06-22 01:57:00,63.2,52.9,30.14,SSE,162,0.0,0.0,69,0.00,,,0.00,0,Wunderground v.1.15,2013-06-22 05:57:00,
2013-06-22 02:02:00,63.2,52.9,30.14,SSE,162,0.0,0.0,69,0.00,,,0.00,0,Wunderground v.1.15,2013-06-22 06:02:00,
2013-06-22 02:08:00,63.4,53.0,30.14,SSE,162,0.0,0.0,69,0.00,,,0.00,0,Wunderground v.1.15,2013-06-22 06:08:00,
2013-06-22 02:13:00,63.4,53.0,30.14,SSE,162,0.0,0.0,69,0.00,,,0.00,0,Wunderground v.1.15,2013-06-22 06:13:00,
2013-06-22 02:19:00,63.4,53.4,30.13,SSE,162,0.0,0.0,70,0.00,,,0.00,0,Wunderground v.1.15,2013-06-22 06:19:00,
2013-06-22 02:24:00,63.2,52.9,30.13,SSE,162,0.0,0.0,69,0.00,,,0.00,0,Wunderground v.1.15,2013-06-22 06:24:00,
2013-06-22 02:31:00,63.2,53.3,30.13,SSE,162,0.0,0.0,70,0.00,,,0.00,0,Wunderground v.1.15,2013-06-22 06:31:00,
2013-06-22 02:36:00,63.2,54.0,30.13,SSE,162,0.0,0.0,72,0.00,,,0.00,0,Wunderground v.1.15,2013-06-22 06:36:00,
2013-06-22 02:41:00,63.1,53.5,30.13,SSE,162,0.0,0.0,71,0.00,,,0.00,0,Wunderground v.1.15,2013-06-22 06:41:00,
2013-06-22 02:47:00,63.1,53.2,30.13,SSE,162,0.0,0.0,70,0.00,,,0.00,0,Wunderground v.1.15,2013-06-22 06:47:00,
2013-06-22 02:53:00,63.1,53.2,30.13,SSE,162,0.0,0.0,70,0.00,,,0.00,0,Wunderground v.1.15,2013-06-22 06:53:00,
2013-06-22 02:59:00,63.1,53.9,30.13,SSE,162,0.0,0.0,72,0.00,,,0.00,0,Wunderground v.1.15,2013-06-22 06:59:00,
2013-06-22 03:04:00,62.9,54.1,30.13,SSE,162,0.0,0.0,73,0.00,,,0.00,0,Wunderground v.1.15,2013-06-22 07:04:00,
2013-06-22 03:10:00,62.7,54.7,30.13,SSE,162,0.0,0.0,75,0.00,,,0.00,0,Wunderground v.1.15,2013-06-22 07:10:00,
2013-06-22 03:16:00,62.1,54.4,30.12,SSE,162,0.0,0.0,76,0.00,,,0.00,0,Wunderground v.1.15,2013-06-22 07:16:00,
2013-06-22 03:21:00,61.6,54.0,30.12,SSE,162,0.0,0.0,76,0.00,,,0.00,0,Wunderground v.1.15,2013-06-22 07:21:00,
2013-06-22 03:26:00,61.3,54.0,30.12,SSE,162,0.0,0.0,77,0.00,,,0.00,0,Wunderground v.1.15,2013-06-22 07:26:00,
2013-06-22 03:32:00,61.0,54.1,30.12,SSE,162,0.0,0.0,78,0.00,,,0.00,0,Wunderground v.1.15,2013-06-22 07:32:00,
2013-06-22 03:38:00,60.9,54.0,30.12,SSE,162,0.0,0.0,78,0.00,,,0.00,0,Wunderground v.1.15,2013-06-22 07:38:00,
2013-06-22 03:43:00,60.9,54.0,30.12,SSE,162,0.0,0.0,78,0.00,,,0.00,0,Wunderground v.1.15,2013-06-22 07:43:00,
2013-06-22 03:49:00,60.9,53.6,30.12,SSE,162,0.0,0.0,77,0.00,,,0.00,0,Wunderground v.1.15,2013-06-22 07:49:00,
2013-06-22 03:56:00,60.9,53.6,30.12,SSE,162,0.0,0.0,77,0.00,,,0.00,0,Wunderground v.1.15,2013-06-22 07:56:00,
2013-06-22 04:01:00,61.0,54.1,30.12,SSE,162,0.0,0.0,78,0.00,,,0.00,0,Wunderground v.1.15,2013-06-22 08:01:00,
2013-06-22 04:07:00,60.9,54.3,30.12,SSE,162,0.0,0.0,79,0.00,,,0.00,0,Wunderground v.1.15,2013-06-22 08:07:00,
2013-06-22 04:13:00,60.5,54.3,30.12,SSE,162,0.0,0.0,80,0.00,,,0.00,0,Wunderground v.1.15,2013-06-22 08:13:00,
2013-06-22 04:19:00,60.5,54.0,30.12,SSE,162,0.0,0.0,79,0.00,,,0.00,0,Wunderground v.1.15,2013-06-22 08:19:00,
2013-06-22 04:24:00,60.4,53.9,30.12,SSE,162,0.0,0.0,79,0.00,,,0.00,0,Wunderground v.1.15,2013-06-22 08:24:00,
2013-06-22 04:31:00,60.2,53.7,30.12,SSE,162,0.0,0.0,79,0.00,,,0.00,0,Wunderground v.1.15,2013-06-22 08:31:00,
2013-06-22 04:36:00,60.2,53.7,30.12,SSE,162,0.0,0.0,79,0.00,,,0.00,0,Wunderground v.1.15,2013-06-22 08:36:00,
2013-06-22 04:42:00,60.1,53.9,30.12,SSE,162,0.0,0.0,80,0.00,,,0.00,0,Wunderground v.1.15,2013-06-22 08:42:00,
2013-06-22 04:47:00,60.1,53.9,30.12,SSE,162,0.0,0.0,80,0.00,,,0.00,0,Wunderground v.1.15,2013-06-22 08:47:00,
2013-06-22 04:53:00,59.9,53.7,30.12,SSE,162,0.0,0.0,80,0.00,,,0.00,0,Wunderground v.1.15,2013-06-22 08:53:00,
2013-06-22 04:59:00,59.9,53.7,30.13,SSE,162,0.0,0.0,80,0.00,,,0.00,0,Wunderground v.1.15,2013-06-22 08:59:00,
2013-06-22 05:06:00,59.8,53.6,30.13,SSE,162,0.0,0.0,80,0.00,,,0.00,0,Wunderground v.1.15,2013-06-22 09:06:00,
2013-06-22 05:11:00,59.8,54.0,30.13,SSE,162,0.0,0.0,81,0.00,,,0.00,0,Wunderground v.1.15,2013-06-22 09:11:00,
2013-06-22 05:17:00,59.6,54.1,30.14,SSE,162,0.0,0.0,82,0.00,,,0.00,5,Wunderground v.1.15,2013-06-22 09:17:00,
2013-06-22 05:22:00,59.6,54.1,30.14,SSE,162,0.0,0.0,82,0.00,,,0.00,7,Wunderground v.1.15,2013-06-22 09:22:00,
2013-06-22 05:28:00,59.5,54.0,30.14,SSE,162,0.0,0.0,82,0.00,,,0.00,11,Wunderground v.1.15,2013-06-22 09:28:00,
2013-06-22 05:34:00,59.6,54.4,30.14,SSE,162,0.0,0.0,83,0.00,,,0.00,12,Wunderground v.1.15,2013-06-22 09:34:00,
2013-06-22 05:41:00,59.6,54.4,30.14,SSE,162,0.0,0.0,83,0.00,,,0.00,19,Wunderground v.1.15,2013-06-22 09:41:00,
2013-06-22 05:46:00,59.6,54.4,30.13,SSE,162,0.0,0.0,83,0.00,,,0.00,21,Wunderground v.1.15,2013-06-22 09:46:00,
2013-06-22 05:51:00,59.8,54.6,30.13,SSE,162,0.0,0.0,83,0.00,,,0.00,25,Wunderground v.1.15,2013-06-22 09:51:00,
2013-06-22 05:57:00,59.9,55.1,30.13,SSE,162,0.0,0.0,84,0.00,,,0.00,26,Wunderground v.1.15,2013-06-22 09:57:00,
2013-06-22 06:03:00,59.9,55.1,30.12,SSE,162,0.0,0.0,84,0.00,,,0.00,33,Wunderground v.1.15,2013-06-22 10:03:00,
2013-06-22 06:09:00,60.1,55.2,30.12,SSE,162,0.0,0.0,84,0.00,,,0.00,42,Wunderground v.1.15,2013-06-22 10:09:00,
2013-06-22 06:16:00,60.2,55.7,30.12,SSE,162,0.0,0.0,85,0.00,,,0.00,51,Wunderground v.1.15,2013-06-22 10:16:00,
2013-06-22 06:21:00,60.4,55.9,30.12,SSE,162,0.0,0.0,85,0.00,,,0.00,39,Wunderground v.1.15,2013-06-22 10:21:00,
2013-06-22 06:26:00,60.7,56.2,30.12,SSE,162,0.0,0.0,85,0.00,,,0.00,37,Wunderground v.1.15,2013-06-22 10:26:00,
2013-06-22 06:32:00,61.0,56.5,30.11,SSE,162,0.0,0.0,85,0.00,,,0.00,40,Wunderground v.1.15,2013-06-22 10:32:00,
2013-06-22 06:38:00,61.3,56.8,30.11,SSE,162,0.0,0.0,85,0.00,,,0.00,47,Wunderground v.1.15,2013-06-22 10:38:00,
2013-06-22 06:44:00,61.6,57.0,30.11,SSE,162,0.0,2.0,85,0.00,,,0.00,53,Wunderground v.1.15,2013-06-22 10:44:00,
2013-06-22 06:49:00,61.8,57.2,30.11,SSE,162,0.0,2.0,85,0.00,,,0.00,51,Wunderground v.1.15,2013-06-22 10:49:00,
2013-06-22 06:56:00,62.1,57.2,30.11,SSE,162,0.0,0.0,84,0.00,,,0.00,63,Wunderground v.1.15,2013-06-22 10:56:00,
2013-06-22 07:01:00,62.3,57.7,30.11,SSE,162,0.0,0.0,85,0.00,,,0.00,70,Wunderground v.1.15,2013-06-22 11:01:00,
2013-06-22 07:07:00,62.4,57.8,30.11,SSE,162,0.0,0.0,85,0.00,,,0.00,104,Wunderground v.1.15,2013-06-22 11:07:00,
2013-06-22 07:12:00,62.7,58.1,30.11,SSE,162,0.0,0.0,85,0.00,,,0.00,76,Wunderground v.1.15,2013-06-22 11:12:00,
2013-06-22 07:18:00,63.1,58.5,30.11,SSE,162,0.0,0.0,85,0.00,,,0.00,88,Wunderground v.1.15,2013-06-22 11:18:00,
2013-06-22 07:24:00,63.2,58.6,30.11,SSE,162,0.0,0.0,85,0.00,,,0.00,91,Wunderground v.1.15,2013-06-22 11:24:00,
2013-06-22 07:31:00,63.5,58.9,30.11,SSE,162,0.0,0.0,85,0.00,,,0.00,83,Wunderground v.1.15,2013-06-22 11:31:00,
2013-06-22 07:36:00,63.9,59.0,30.11,SSE,162,0.0,0.0,84,0.00,,,0.00,76,Wunderground v.1.15,2013-06-22 11:36:00,
2013-06-22 07:41:00,64.0,59.1,30.11,SSE,162,0.0,0.0,84,0.00,,,0.00,86,Wunderground v.1.15,2013-06-22 11:41:00,
2013-06-22 07:47:00,64.3,59.4,30.12,SSE,162,0.0,0.0,84,0.00,,,0.00,91,Wunderground v.1.15,2013-06-22 11:47:00,
2013-06-22 07:52:00,64.5,59.6,30.12,SSE,162,0.0,0.0,84,0.00,,,0.00,120,Wunderground v.1.15,2013-06-22 11:52:00,
2013-06-22 07:58:00,64.8,59.9,30.12,SSE,162,0.0,0.0,84,0.00,,,0.00,139,Wunderground v.1.15,2013-06-22 11:58:00,
2013-06-22 08:04:00,65.2,60.2,30.12,SSE,162,0.0,0.0,84,0.00,,,0.00,107,Wunderground v.1.15,2013-06-22 12:04:00,
2013-06-22 08:11:00,65.5,60.2,30.12,SSE,162,0.0,0.0,83,0.00,,,0.00,132,Wunderground v.1.15,2013-06-22 12:11:00,
2013-06-22 08:16:00,65.6,60.3,30.12,SSE,162,0.0,0.0,83,0.00,,,0.00,127,Wunderground v.1.15,2013-06-22 12:16:00,
2013-06-22 08:22:00,66.0,60.3,30.12,SSE,162,0.0,0.0,82,0.00,,,0.00,174,Wunderground v.1.15,2013-06-22 12:22:00,
2013-06-22 08:28:00,66.4,61.1,30.12,SSE,162,0.0,0.0,83,0.00,,,0.00,232,Wunderground v.1.15,2013-06-22 12:28:00,
2013-06-22 08:33:00,66.8,60.4,30.11,SSE,162,0.0,0.0,80,0.00,,,0.00,230,Wunderground v.1.15,2013-06-22 12:33:00,
2013-06-22 08:39:00,67.3,60.9,30.11,SSE,162,0.0,0.0,80,0.00,,,0.00,193,Wunderground v.1.15,2013-06-22 12:39:00,
2013-06-22 08:44:00,67.8,61.0,30.12,SSE,162,0.0,0.0,79,0.00,,,0.00,230,Wunderground v.1.15,2013-06-22 12:44:00,
2013-06-22 08:51:00,68.6,61.8,30.12,SSE,162,0.0,0.0,79,0.00,,,0.00,258,Wunderground v.1.15,2013-06-22 12:51:00,
2013-06-22 08:56:00,69.4,61.9,30.12,SSE,162,0.0,0.0,77,0.00,,,0.00,568,Wunderground v.1.15,2013-06-22 12:56:00,
2013-06-22 09:02:00,70.4,61.7,30.12,SSE,162,0.0,1.0,74,0.00,,,0.00,570,Wunderground v.1.15,2013-06-22 13:02:00,
2013-06-22 09:08:00,71.6,62.5,30.12,South,184,0.0,1.0,73,0.00,,,0.00,473,Wunderground v.1.15,2013-06-22 13:08:00,
2013-06-22 09:14:00,72.1,61.8,30.12,SSW,197,0.0,0.0,70,0.00,,,0.00,496,Wunderground v.1.15,2013-06-22 13:14:00,
2013-06-22 09:21:00,73.0,63.0,30.12,South,169,0.0,0.0,71,0.00,,,0.00,341,Wunderground v.1.15,2013-06-22 13:21:00,
2013-06-22 09:26:00,73.3,62.5,30.12,SSW,200,0.0,2.0,69,0.00,,,0.00,366,Wunderground v.1.15,2013-06-22 13:26:00,
2013-06-22 09:31:00,73.3,62.1,30.12,SW,236,0.0,0.0,68,0.00,,,0.00,276,Wunderground v.1.15,2013-06-22 13:31:00,
2013-06-22 09:37:00,73.5,61.9,30.12,SSE,158,0.0,0.0,67,0.00,,,0.00,274,Wunderground v.1.15,2013-06-22 13:37:00,
2013-06-22 09:43:00,73.5,61.9,30.12,SSE,160,0.0,1.0,67,0.00,,,0.00,306,Wunderground v.1.15,2013-06-22 13:43:00,
2013-06-22 09:49:00,73.9,62.7,30.12,SSE,167,0.0,4.0,68,0.00,,,0.00,666,Wunderground v.1.15,2013-06-22 13:49:00,
2013-06-22 09:54:00,74.2,62.1,30.12,South,180,0.0,1.0,66,0.00,,,0.00,482,Wunderground v.1.15,2013-06-22 13:54:00,
2013-06-22 10:01:00,74.6,62.9,30.11,South,187,0.0,0.0,67,0.00,,,0.00,373,Wunderground v.1.15,2013-06-22 14:01:00,
2013-06-22 10:06:00,74.7,63.0,30.11,South,188,0.0,1.0,67,0.00,,,0.00,577,Wunderground v.1.15,2013-06-22 14:06:00,
2013-06-22 10:11:00,74.9,63.2,30.11,SW,230,0.0,0.0,67,0.00,,,0.00,288,Wunderground v.1.15,2013-06-22 14:11:00,
2013-06-22 10:16:00,74.6,62.5,30.12,SW,222,0.0,2.0,66,0.00,,,0.00,320,Wunderground v.1.15,2013-06-22 14:16:00,
2013-06-22 10:22:00,74.0,61.9,30.12,South,169,0.0,1.0,66,0.00,,,0.00,279,Wunderground v.1.15,2013-06-22 14:22:00,
2013-06-22 10:28:00,73.7,62.1,30.12,SSW,196,0.0,4.0,67,0.00,,,0.00,345,Wunderground v.1.15,2013-06-22 14:28:00,
2013-06-22 10:34:00,73.7,62.9,30.12,SSE,149,0.0,0.0,69,0.00,,,0.00,686,Wunderground v.1.15,2013-06-22 14:34:00,
2013-06-22 10:39:00,74.2,62.5,30.12,SE,137,0.0,0.0,67,0.00,,,0.00,294,Wunderground v.1.15,2013-06-22 14:39:00,
2013-06-22 10:46:00,74.6,62.5,30.11,South,187,0.0,2.0,66,0.00,,,0.00,334,Wunderground v.1.15,2013-06-22 14:46:00,
2013-06-22 10:51:00,75.1,63.4,30.11,SSE,156,0.0,2.0,67,0.00,,,0.00,650,Wunderground v.1.15,2013-06-22 14:51:00,
2013-06-22 10:56:00,75.3,63.2,30.11,SSE,157,0.0,2.0,66,0.00,,,0.00,443,Wunderground v.1.15,2013-06-22 14:56:00,
2013-06-22 11:02:00,75.4,63.7,30.11,SSW,193,0.0,0.0,67,0.00,,,0.00,329,Wunderground v.1.15,2013-06-22 15:02:00,
2013-06-22 11:07:00,75.3,62.7,30.11,SSE,162,1.0,2.0,65,0.00,,,0.00,371,Wunderground v.1.15,2013-06-22 15:07:00,
2013-06-22 11:13:00,75.8,64.1,30.11,SSE,162,0.0,0.0,67,0.00,,,0.00,694,Wunderground v.1.15,2013-06-22 15:13:00,
2013-06-22 11:19:00,76.3,63.7,30.11,SSE,162,0.0,0.0,65,0.00,,,0.00,522,Wunderground v.1.15,2013-06-22 15:19:00,
2013-06-22 11:26:00,76.3,63.7,30.11,SW,219,0.0,1.0,65,0.00,,,0.00,223,Wunderground v.1.15,2013-06-22 15:26:00,
2013-06-22 11:31:00,76.1,63.5,30.11,SW,224,0.0,0.0,65,0.00,,,0.00,207,Wunderground v.1.15,2013-06-22 15:31:00,
2013-06-22 11:37:00,75.8,64.1,30.11,SW,222,0.0,0.0,67,0.00,,,0.00,355,Wunderground v.1.15,2013-06-22 15:37:00,
2013-06-22 11:42:00,76.0,64.2,30.11,SW,218,0.0,0.0,67,0.00,,,0.00,657,Wunderground v.1.15,2013-06-22 15:42:00,
2013-06-22 11:48:00,77.0,65.6,30.10,SW,231,0.0,3.0,68,0.00,,,0.00,570,Wunderground v.1.15,2013-06-22 15:48:00,
2013-06-22 11:54:00,77.7,64.5,30.10,SW,214,0.0,2.0,64,0.00,,,0.00,1032,Wunderground v.1.15,2013-06-22 15:54:00,
2013-06-22 11:59:00,78.8,65.6,30.09,SW,214,0.0,2.0,64,0.00,,,0.00,1002,Wunderground v.1.15,2013-06-22 15:59:00,
2013-06-22 12:06:00,80.1,65.0,30.09,SSE,151,1.0,1.0,60,0.00,,,0.00,993,Wunderground v.1.15,2013-06-22 16:06:00,
2013-06-22 12:11:00,80.1,65.0,30.09,WSW,246,1.0,1.0,60,0.00,,,0.00,1041,Wunderground v.1.15,2013-06-22 16:11:00,
2013-06-22 12:17:00,80.5,66.3,30.09,SSW,194,0.0,3.0,62,0.00,,,0.00,1032,Wunderground v.1.15,2013-06-22 16:17:00,
2013-06-22 12:22:00,81.4,66.2,30.09,SE,125,1.0,1.0,60,0.00,,,0.00,1018,Wunderground v.1.15,2013-06-22 16:22:00,
2013-06-22 12:28:00,81.8,65.1,30.09,East,98,0.0,1.0,57,0.00,,,0.00,555,Wunderground v.1.15,2013-06-22 16:28:00,
2013-06-22 12:34:00,82.0,64.8,30.10,West,272,0.0,0.0,56,0.00,,,0.00,568,Wunderground v.1.15,2013-06-22 16:34:00,
2013-06-22 12:39:00,82.2,65.4,30.10,SSE,165,0.0,0.0,57,0.00,,,0.00,404,Wunderground v.1.15,2013-06-22 16:39:00,
2013-06-22 12:44:00,81.6,64.4,30.09,SSW,205,0.0,1.0,56,0.00,,,0.00,387,Wunderground v.1.15,2013-06-22 16:44:00,
2013-06-22 12:51:00,81.4,64.7,30.09,SE,141,0.0,0.0,57,0.00,,,0.00,346,Wunderground v.1.15,2013-06-22 16:51:00,
2013-06-22 12:56:00,80.9,63.7,30.09,West,271,0.0,2.0,56,0.00,,,0.00,383,Wunderground v.1.15,2013-06-22 16:56:00,
2013-06-22 13:02:00,80.3,64.2,30.09,ESE,113,0.0,0.0,58,0.00,,,0.00,388,Wunderground v.1.15,2013-06-22 17:02:00,
2013-06-22 13:07:00,80.1,65.4,30.09,WSW,249,0.0,0.0,61,0.00,,,0.00,345,Wunderground v.1.15,2013-06-22 17:07:00,
2013-06-22 13:13:00,80.3,65.1,30.09,SSW,212,0.0,2.0,60,0.00,,,0.00,360,Wunderground v.1.15,2013-06-22 17:13:00,
2013-06-22 13:19:00,81.2,64.5,30.09,SSW,212,1.0,5.0,57,0.00,,,0.00,998,Wunderground v.1.15,2013-06-22 17:19:00,
2013-06-22 13:24:00,81.6,65.9,30.09,SSW,203,1.0,1.0,59,0.00,,,0.00,1155,Wunderground v.1.15,2013-06-22 17:24:00,
2013-06-22 13:31:00,81.6,65.4,30.08,NW,322,0.0,0.0,58,0.00,,,0.00,759,Wunderground v.1.15,2013-06-22 17:31:00,
2013-06-22 13:36:00,82.2,65.4,30.08,SSE,162,0.0,3.0,57,0.00,,,0.00,396,Wunderground v.1.15,2013-06-22 17:36:00,
2013-06-22 13:41:00,82.4,64.6,30.08,ENE,78,0.0,0.0,55,0.00,,,0.00,517,Wunderground v.1.15,2013-06-22 17:41:00,
2013-06-22 13:47:00,82.0,66.3,30.07,ENE,78,0.0,0.0,59,0.00,,,0.00,404,Wunderground v.1.15,2013-06-22 17:47:00,
2013-06-22 13:53:00,81.8,66.1,30.07,South,190,0.0,0.0,59,0.00,,,0.00,348,Wunderground v.1.15,2013-06-22 17:53:00,
2013-06-22 13:58:00,81.4,65.7,30.07,South,189,0.0,0.0,59,0.00,,,0.00,251,Wunderground v.1.15,2013-06-22 17:58:00,
2013-06-22 14:04:00,80.9,64.7,30.07,SSE,158,0.0,3.0,58,0.00,,,0.00,165,Wunderground v.1.15,2013-06-22 18:04:00,
2013-06-22 14:09:00,80.5,65.3,30.07,SSE,158,0.0,3.0,60,0.00,,,0.00,148,Wunderground v.1.15,2013-06-22 18:09:00,
2013-06-22 14:14:00,79.8,65.6,30.07,SSE,158,0.0,0.0,62,0.00,,,0.00,149,Wunderground v.1.15,2013-06-22 18:14:00,
2013-06-22 14:21:00,79.2,66.0,30.07,ESE,104,0.0,0.0,64,0.00,,,0.00,227,Wunderground v.1.15,2013-06-22 18:21:00,
2013-06-22 14:26:00,78.6,65.8,30.07,SE,139,0.0,0.0,65,0.00,,,0.00,271,Wunderground v.1.15,2013-06-22 18:26:00,
2013-06-22 14:32:00,78.5,65.3,30.07,SSE,162,0.0,1.0,64,0.00,,,0.00,288,Wunderground v.1.15,2013-06-22 18:32:00,
2013-06-22 14:38:00,78.5,65.3,30.07,SSE,162,0.0,1.0,64,0.00,,,0.00,223,Wunderground v.1.15,2013-06-22 18:38:00,
2013-06-22 14:43:00,78.6,65.4,30.07,SSE,162,0.0,0.0,64,0.00,,,0.00,111,Wunderground v.1.15,2013-06-22 18:43:00,
2013-06-22 14:49:00,78.6,64.9,30.07,SSE,162,0.0,0.0,63,0.00,,,0.00,86,Wunderground v.1.15,2013-06-22 18:49:00,
2013-06-22 14:56:00,78.5,65.3,30.07,SSE,162,0.0,0.0,64,0.00,,,0.00,102,Wunderground v.1.15,2013-06-22 18:56:00,
2013-06-22 15:01:00,78.1,65.4,30.06,SSE,162,0.0,0.0,65,0.00,,,0.00,113,Wunderground v.1.15,2013-06-22 19:01:00,
2013-06-22 15:06:00,77.9,66.1,30.06,SSE,162,0.0,0.0,67,0.00,,,0.00,60,Wunderground v.1.15,2013-06-22 19:06:00,
2013-06-22 15:11:00,77.7,65.4,30.06,SSE,162,0.0,0.0,66,0.00,,,0.00,56,Wunderground v.1.15,2013-06-22 19:11:00,
2013-06-22 15:17:00,77.4,65.6,30.06,SSE,162,0.0,0.0,67,0.00,,,0.00,42,Wunderground v.1.15,2013-06-22 19:17:00,
2013-06-22 15:23:00,77.2,65.4,30.06,SSE,162,0.0,0.0,67,0.00,,,0.00,35,Wunderground v.1.15,2013-06-22 19:23:00,
2013-06-22 15:29:00,76.8,65.4,30.06,SSE,162,0.0,0.0,68,0.00,,,0.00,30,Wunderground v.1.15,2013-06-22 19:29:00,
2013-06-22 15:34:00,76.7,66.2,30.06,SSE,162,0.0,0.0,70,0.00,,,0.00,35,Wunderground v.1.15,2013-06-22 19:34:00,
2013-06-22 15:41:00,76.0,67.5,30.06,SSE,162,0.0,0.0,75,0.00,,,0.00,28,Wunderground v.1.15,2013-06-22 19:41:00,
2013-06-22 15:46:00,75.6,67.1,30.07,SSE,162,0.0,0.0,75,0.20,,,0.02,9,Wunderground v.1.15,2013-06-22 19:46:00,
2013-06-22 15:51:00,75.1,67.4,30.07,SSE,162,0.0,0.0,77,0.07,,,0.02,5,Wunderground v.1.15,2013-06-22 19:51:00,
2013-06-22 15:57:00,73.9,67.3,30.07,SSE,162,0.0,0.0,80,0.05,,,0.03,7,Wunderground v.1.15,2013-06-22 19:57:00,
2013-06-22 16:03:00,73.0,67.5,30.08,SSE,162,0.0,0.0,83,0.12,,,0.04,9,Wunderground v.1.15,2013-06-22 20:03:00,
2013-06-22 16:09:00,72.7,67.6,30.08,SSE,162,0.0,0.0,84,0.22,,,0.06,18,Wunderground v.1.15,2013-06-22 20:09:00,
2013-06-22 16:16:00,72.0,67.6,30.08,SSE,162,0.0,0.0,86,1.17,,,0.14,19,Wunderground v.1.15,2013-06-22 20:16:00,
2013-06-22 16:21:00,71.8,67.4,30.08,SSE,162,0.0,0.0,86,0.20,,,0.15,37,Wunderground v.1.15,2013-06-22 20:21:00,
2013-06-22 16:27:00,71.5,67.4,30.08,SSE,162,0.0,0.0,87,0.07,,,0.15,109,Wunderground v.1.15,2013-06-22 20:27:00,
2013-06-22 16:32:00,71.6,67.5,30.08,SSE,162,0.0,0.0,87,0.04,,,0.15,120,Wunderground v.1.15,2013-06-22 20:32:00,
2013-06-22 16:38:00,71.6,67.5,30.08,SSE,162,0.0,1.0,87,0.00,,,0.15,53,Wunderground v.1.15,2013-06-22 20:38:00,
2013-06-22 16:44:00,71.1,66.7,30.07,SSE,162,0.0,0.0,86,0.00,,,0.15,44,Wunderground v.1.15,2013-06-22 20:44:00,
2013-06-22 16:51:00,70.8,67.1,30.07,SSE,162,0.0,0.0,88,0.00,,,0.15,60,Wunderground v.1.15,2013-06-22 20:51:00,
2013-06-22 16:56:00,70.8,67.1,30.07,SSE,162,0.0,0.0,88,0.00,,,0.15,60,Wunderground v.1.15,2013-06-22 20:56:00,
2013-06-22 17:01:00,70.6,66.9,30.06,SSE,162,0.0,0.0,88,0.00,,,0.15,47,Wunderground v.1.15,2013-06-22 21:01:00,
2013-06-22 17:06:00,70.4,66.7,30.06,SSE,162,0.0,0.0,88,0.00,,,0.15,26,Wunderground v.1.15,2013-06-22 21:06:00,
2013-06-22 17:11:00,70.4,66.7,30.06,SSE,162,0.0,0.0,88,0.00,,,0.15,16,Wunderground v.1.15,2013-06-22 21:11:00,
2013-06-22 17:17:00,70.1,66.4,30.06,SSE,162,0.0,0.0,88,0.00,,,0.15,12,Wunderground v.1.15,2013-06-22 21:17:00,
2013-06-22 17:22:00,69.9,66.5,30.06,SSE,162,0.0,0.0,89,0.00,,,0.15,11,Wunderground v.1.15,2013-06-22 21:22:00,
2013-06-22 17:28:00,69.9,66.5,30.06,SSE,162,0.0,0.0,89,0.00,,,0.15,19,Wunderground v.1.15,2013-06-22 21:28:00,
2013-06-22 17:34:00,69.9,66.5,30.06,SSE,162,0.0,0.0,89,0.00,,,0.15,12,Wunderground v.1.15,2013-06-22 21:34:00,
2013-06-22 17:41:00,69.9,66.5,30.06,SSE,162,0.0,0.0,89,0.00,,,0.15,21,Wunderground v.1.15,2013-06-22 21:41:00,
2013-06-22 17:46:00,69.9,66.5,30.06,SSE,162,0.0,0.0,89,0.00,,,0.15,25,Wunderground v.1.15,2013-06-22 21:46:00,
2013-06-22 17:52:00,69.8,66.4,30.06,SSE,162,0.0,1.0,89,0.00,,,0.15,19,Wunderground v.1.15,2013-06-22 21:52:00,
2013-06-22 17:57:00,69.8,66.4,30.06,SSE,162,0.0,1.0,89,0.00,,,0.15,25,Wunderground v.1.15,2013-06-22 21:57:00,
2013-06-22 18:03:00,69.6,66.5,30.06,SSE,162,0.0,0.0,90,0.00,,,0.15,21,Wunderground v.1.15,2013-06-22 22:03:00,
2013-06-22 18:09:00,69.4,66.3,30.06,SSE,162,0.0,1.0,90,0.00,,,0.15,37,Wunderground v.1.15,2013-06-22 22:09:00,
2013-06-22 18:14:00,69.4,66.3,30.05,SSE,162,0.0,0.0,90,0.00,,,0.15,40,Wunderground v.1.15,2013-06-22 22:14:00,
2013-06-22 18:21:00,69.4,66.3,30.05,SSE,162,0.0,1.0,90,0.00,,,0.15,46,Wunderground v.1.15,2013-06-22 22:21:00,
2013-06-22 18:26:00,69.3,66.2,30.05,SW,236,0.0,3.0,90,0.00,,,0.15,53,Wunderground v.1.15,2013-06-22 22:26:00,
2013-06-22 18:31:00,69.3,66.6,30.04,SW,236,0.0,0.0,91,0.00,,,0.15,40,Wunderground v.1.15,2013-06-22 22:31:00,
2013-06-22 18:37:00,69.3,66.6,30.04,SW,236,0.0,1.0,91,0.00,,,0.15,33,Wunderground v.1.15,2013-06-22 22:37:00,
2013-06-22 18:43:00,69.3,66.6,30.04,SSE,164,0.0,0.0,91,0.00,,,0.15,28,Wunderground v.1.15,2013-06-22 22:43:00,
2013-06-22 18:48:00,69.3,66.6,30.04,SSW,198,0.0,5.0,91,0.00,,,0.15,30,Wunderground v.1.15,2013-06-22 22:48:00,
2013-06-22 18:54:00,69.1,66.0,30.04,South,177,0.0,1.0,90,0.00,,,0.15,32,Wunderground v.1.15,2013-06-22 22:54:00,
2013-06-22 19:01:00,69.1,66.0,30.04,South,177,0.0,0.0,90,0.00,,,0.15,26,Wunderground v.1.15,2013-06-22 23:01:00,
2013-06-22 19:06:00,68.9,65.8,30.04,South,178,0.0,0.0,90,0.00,,,0.15,19,Wunderground v.1.15,2013-06-22 23:06:00,
2013-06-22 19:12:00,68.9,65.8,30.04,South,176,0.0,0.0,90,0.00,,,0.15,19,Wunderground v.1.15,2013-06-22 23:12:00,
2013-06-22 19:18:00,68.8,65.7,30.03,South,176,0.0,0.0,90,0.00,,,0.15,30,Wunderground v.1.15,2013-06-22 23:18:00,
2013-06-22 19:23:00,68.8,65.7,30.03,South,176,0.0,0.0,90,0.00,,,0.15,19,Wunderground v.1.15,2013-06-22 23:23:00,
2013-06-22 19:29:00,68.8,65.7,30.03,South,176,0.0,0.0,90,0.00,,,0.15,18,Wunderground v.1.15,2013-06-22 23:29:00,
2013-06-22 19:36:00,68.8,65.7,30.03,South,176,0.0,0.0,90,0.00,,,0.15,19,Wunderground v.1.15,2013-06-22 23:36:00,
2013-06-22 19:41:00,68.8,65.7,30.03,South,176,0.0,0.0,90,0.00,,,0.15,12,Wunderground v.1.15,2013-06-22 23:41:00,
2013-06-22 19:46:00,68.8,65.7,30.03,South,176,0.0,0.0,90,0.00,,,0.15,11,Wunderground v.1.15,2013-06-22 23:46:00,
2013-06-22 19:52:00,68.6,65.5,30.03,South,176,0.0,0.0,90,0.00,,,0.15,11,Wunderground v.1.15,2013-06-22 23:52:00,
2013-06-22 19:58:00,68.4,65.7,30.03,South,176,0.0,0.0,91,0.00,,,0.15,11,Wunderground v.1.15,2013-06-22 23:58:00,
2013-06-22 20:03:00,68.3,65.6,30.04,South,176,0.0,0.0,91,0.00,,,0.15,5,Wunderground v.1.15,2013-06-23 00:03:00,
2013-06-22 20:09:00,67.6,64.6,30.04,South,178,0.0,2.0,90,0.00,,,0.15,0,Wunderground v.1.15,2013-06-23 00:09:00,
2013-06-22 20:16:00,67.1,64.4,30.04,South,178,0.0,0.0,91,0.00,,,0.15,0,Wunderground v.1.15,2013-06-23 00:16:00,
2013-06-22 20:21:00,66.9,64.2,30.04,South,178,0.0,0.0,91,0.00,,,0.16,0,Wunderground v.1.15,2013-06-23 00:21:00,
2013-06-22 20:26:00,66.6,63.9,30.04,South,178,0.0,0.0,91,0.31,,,0.18,0,Wunderground v.1.15,2013-06-23 00:26:00,
2013-06-22 20:32:00,66.4,63.7,30.05,South,178,0.0,0.0,91,0.13,,,0.19,0,Wunderground v.1.15,2013-06-23 00:32:00,
2013-06-22 20:37:00,66.4,64.0,30.05,South,178,0.0,0.0,92,0.55,,,0.22,0,Wunderground v.1.15,2013-06-23 00:37:00,
2013-06-22 20:43:00,66.4,64.0,30.05,South,178,0.0,0.0,92,0.18,,,0.24,0,Wunderground v.1.15,2013-06-23 00:43:00,
2013-06-22 20:49:00,66.4,64.0,30.06,South,178,0.0,0.0,92,0.09,,,0.25,0,Wunderground v.1.15,2013-06-23 00:49:00,
2013-06-22 20:54:00,66.3,63.9,30.06,South,178,0.0,0.0,92,0.15,,,0.27,0,Wunderground v.1.15,2013-06-23 00:54:00,
2013-06-22 21:01:00,66.3,63.9,30.06,South,178,0.0,0.0,92,0.26,,,0.30,0,Wunderground v.1.15,2013-06-23 01:01:00,
2013-06-22 21:06:00,66.3,63.9,30.06,South,178,0.0,0.0,92,0.11,,,0.30,0,Wunderground v.1.15,2013-06-23 01:06:00,
2013-06-22 21:11:00,66.3,63.9,30.06,South,178,0.0,0.0,92,0.16,,,0.32,0,Wunderground v.1.15,2013-06-23 01:11:00,
2013-06-22 21:17:00,66.3,63.9,30.07,South,178,0.0,0.0,92,0.08,,,0.32,0,Wunderground v.1.15,2013-06-23 01:17:00,
2013-06-22 21:22:00,66.3,63.9,30.07,South,178,0.0,0.0,92,0.14,,,0.34,0,Wunderground v.1.15,2013-06-23 01:22:00,
2013-06-22 21:28:00,66.3,63.9,30.07,South,178,0.0,0.0,92,0.09,,,0.34,0,Wunderground v.1.15,2013-06-23 01:28:00,
2013-06-22 21:33:00,66.3,64.2,30.06,South,178,0.0,1.0,93,0.06,,,0.35,0,Wunderground v.1.15,2013-06-23 01:33:00,
2013-06-22 21:39:00,66.3,64.2,30.06,South,178,0.0,1.0,93,0.08,,,0.36,0,Wunderground v.1.15,2013-06-23 01:39:00,
2013-06-22 21:46:00,66.3,64.2,30.06,SSW,200,0.0,1.0,93,0.08,,,0.36,0,Wunderground v.1.15,2013-06-23 01:46:00,
2013-06-22 21:51:00,66.4,64.3,30.06,WSW,255,1.0,2.0,93,0.05,,,0.36,0,Wunderground v.1.15,2013-06-23 01:51:00,
2013-06-22 21:56:00,66.8,64.7,30.06,SW,236,1.0,2.0,93,0.00,,,0.36,0,Wunderground v.1.15,2013-06-23 01:56:00,
2013-06-22 22:02:00,66.8,64.7,30.04,WSW,237,0.0,1.0,93,0.00,,,0.36,0,Wunderground v.1.15,2013-06-23 02:02:00,
2013-06-22 22:08:00,66.8,64.7,30.04,WSW,237,0.0,1.0,93,0.00,,,0.36,0,Wunderground v.1.15,2013-06-23 02:08:00,
2013-06-22 22:13:00,66.8,64.7,30.04,WSW,237,0.0,0.0,93,0.00,,,0.36,0,Wunderground v.1.15,2013-06-23 02:13:00,
2013-06-22 22:18:00,66.8,64.7,30.04,WSW,237,0.0,0.0,93,0.00,,,0.36,0,Wunderground v.1.15,2013-06-23 02:18:00,
2013-06-22 22:24:00,66.8,64.7,30.04,WSW,237,0.0,0.0,93,0.00,,,0.36,0,Wunderground v.1.15,2013-06-23 02:24:00,
2013-06-22 22:31:00,66.8,64.7,30.04,WSW,237,0.0,0.0,93,0.00,,,0.36,0,Wunderground v.1.15,2013-06-23 02:31:00,
2013-06-22 22:36:00,66.8,64.7,30.04,WSW,237,0.0,0.0,93,0.00,,,0.36,0,Wunderground v.1.15,2013-06-23 02:36:00,
2013-06-22 22:41:00,66.8,64.7,30.04,WSW,237,0.0,0.0,93,0.00,,,0.36,0,Wunderground v.1.15,2013-06-23 02:41:00,
2013-06-22 22:47:00,66.8,64.7,30.04,WSW,237,0.0,0.0,93,0.00,,,0.36,0,Wunderground v.1.15,2013-06-23 02:47:00,
2013-06-22 22:53:00,66.8,65.0,30.04,WSW,237,0.0,0.0,94,0.00,,,0.36,0,Wunderground v.1.15,2013-06-23 02:53:00,
2013-06-22 22:58:00,66.8,65.0,30.04,WSW,237,0.0,0.0,94,0.00,,,0.36,0,Wunderground v.1.15,2013-06-23 02:58:00,
2013-06-22 23:04:00,66.9,65.1,30.04,WSW,237,0.0,0.0,94,0.00,,,0.36,0,Wunderground v.1.15,2013-06-23 03:04:00,
2013-06-22 23:11:00,66.9,65.1,30.04,WSW,237,0.0,0.0,94,0.00,,,0.36,0,Wunderground v.1.15,2013-06-23 03:11:00,
2013-06-22 23:16:00,66.9,65.1,30.04,WSW,237,0.0,0.0,94,0.00,,,0.36,0,Wunderground v.1.15,2013-06-23 03:16:00,
2013-06-22 23:22:00,66.8,65.0,30.04,WSW,237,0.0,0.0,94,0.00,,,0.36,0,Wunderground v.1.15,2013-06-23 03:22:00,
2013-06-22 23:28:00,66.8,65.0,30.04,WSW,237,0.0,0.0,94,0.00,,,0.36,0,Wunderground v.1.15,2013-06-23 03:28:00,
2013-06-22 23:33:00,66.6,64.8,30.03,WSW,237,0.0,0.0,94,0.00,,,0.36,0,Wunderground v.1.15,2013-06-23 03:33:00,
2013-06-22 23:39:00,66.6,64.8,30.03,WSW,237,0.0,0.0,94,0.00,,,0.36,0,Wunderground v.1.15,2013-06-23 03:39:00,
2013-06-22 23:46:00,66.6,64.8,30.03,WSW,237,0.0,0.0,94,0.00,,,0.36,0,Wunderground v.1.15,2013-06-23 03:46:00,
2013-06-22 23:51:00,66.6,64.8,30.03,WSW,237,0.0,0.0,94,0.00,,,0.36,0,Wunderground v.1.15,2013-06-23 03:51:00,
2013-06-22 23:56:00,66.6,64.8,30.03,WSW,237,0.0,0.0,94,0.00,,,0.36,0,Wunderground v.1.15,2013-06-23 03:56:00,